^^

New Milford Station Historical Data

 
Daily Summary for January 15, 2019 Units:  English    Metric   Both
Daily Weekly Monthly Yearly Custom
  Current: High: Low: Average:
Temperature: 22.8 °F 35.0 °F 18.0 °F 25.5 °F
Dew Point: 20.3 °F 24.8 °F 14.1 °F 19.6 °F
Humidity: 90% 90% 65% 79%
Wind Speed: 0.0mph 6.0mph 0.0mph 0.9mph
Wind Gust: 0.0mph 13.0mph - -
WindCalm - - ENE
Pressure: 30.06 in 30.14 in 30.04 in -
Precipitation: 0.00 in      
Historical Graphs
 
 
Tabular Data for January 15, 2019
Time Temperature Dew Point Pressure Wind Wind Speed Wind Gust Humidity Rainfall Rate (Hourly) solar
00:00 20.9 °F 15.7 °F 30.07 in Calm     80% 0.00 in WeatherDisplay:10.37 W/m2
00:05 20.9 °F 15.7 °F 30.06 in Calm     80% 0.00 in WeatherDisplay:10.37 W/m2
00:10 20.8 °F 15.6 °F 30.06 in Calm     80% 0.00 in WeatherDisplay:10.37 W/m2
00:15 20.8 °F 15.6 °F 30.06 in Calm     80% 0.00 in WeatherDisplay:10.37 W/m2
00:20 20.8 °F 15.6 °F 30.06 in Calm     80% 0.00 in WeatherDisplay:10.37 W/m2
00:25 20.8 °F 15.6 °F 30.06 in Calm     80% 0.00 in WeatherDisplay:10.37 W/m2
00:30 20.7 °F 15.5 °F 30.06 in Calm     80% 0.00 in WeatherDisplay:10.37 W/m2
00:35 20.5 °F 15.3 °F 30.06 in Calm     80% 0.00 in WeatherDisplay:10.37 W/m2
00:40 20.5 °F 15.3 °F 30.05 in Calm     80% 0.00 in WeatherDisplay:10.37 W/m2
00:45 20.4 °F 15.2 °F 30.05 in Calm     80% 0.00 in WeatherDisplay:10.37 W/m2
00:50 20.3 °F 15.1 °F 30.05 in Calm     80% 0.00 in WeatherDisplay:10.37 W/m2
00:55 20.2 °F 15.0 °F 30.05 in Calm     80% 0.00 in WeatherDisplay:10.37 W/m2
01:00 20.0 °F 14.9 °F 30.05 in Calm     80% 0.00 in WeatherDisplay:10.37 W/m2
01:05 19.9 °F 15.0 °F 30.05 in Calm     81% 0.00 in WeatherDisplay:10.37 W/m2
01:10 19.8 °F 14.9 °F 30.05 in Calm     81% 0.00 in WeatherDisplay:10.37 W/m2
01:15 19.8 °F 14.9 °F 30.05 in Calm     81% 0.00 in WeatherDisplay:10.37 W/m2
01:20 19.7 °F 15.1 °F 30.05 in Calm     82% 0.00 in WeatherDisplay:10.37 W/m2
01:25 19.4 °F 14.8 °F 30.05 in Calm     82% 0.00 in WeatherDisplay:10.37 W/m2
01:30 19.3 °F 14.7 °F 30.05 in Calm     82% 0.00 in WeatherDisplay:10.37 W/m2
01:35 19.3 °F 15.0 °F 30.05 in Calm     83% 0.00 in WeatherDisplay:10.37 W/m2
01:40 19.4 °F 15.1 °F 30.05 in Calm     83% 0.00 in WeatherDisplay:10.37 W/m2
01:45 19.4 °F 15.1 °F 30.05 in Calm     83% 0.00 in WeatherDisplay:10.37 W/m2
01:50 19.4 °F 15.0 °F 30.05 in Calm     83% 0.00 in WeatherDisplay:10.37 W/m2
01:55 19.2 °F 14.9 °F 30.06 in Calm     83% 0.00 in WeatherDisplay:10.37 W/m2
02:00 19.1 °F 14.8 °F 30.05 in Calm     83% 0.00 in WeatherDisplay:10.37 W/m2
02:05 19.1 °F 14.7 °F 30.06 in Calm     83% 0.00 in WeatherDisplay:10.37 W/m2
02:10 19.0 °F 14.7 °F 30.06 in Calm     83% 0.00 in WeatherDisplay:10.37 W/m2
02:15 18.9 °F 14.6 °F 30.06 in Calm     83% 0.00 in WeatherDisplay:10.37 W/m2
02:20 18.8 °F 14.5 °F 30.06 in Calm     83% 0.00 in WeatherDisplay:10.37 W/m2
02:25 18.7 °F 14.4 °F 30.06 in Calm     83% 0.00 in WeatherDisplay:10.37 W/m2
02:30 18.8 °F 14.5 °F 30.06 in Calm     83% 0.00 in WeatherDisplay:10.37 W/m2
02:35 18.7 °F 14.4 °F 30.06 in Calm     83% 0.00 in WeatherDisplay:10.37 W/m2
02:40 18.5 °F 14.2 °F 30.06 in Calm     83% 0.00 in WeatherDisplay:10.37 W/m2
02:45 18.5 °F 14.2 °F 30.06 in Calm     83% 0.00 in WeatherDisplay:10.37 W/m2
02:50 18.3 °F 14.3 °F 30.06 in Calm     84% 0.00 in WeatherDisplay:10.37 W/m2
02:55 18.5 °F 14.5 °F 30.05 in Calm     84% 0.00 in WeatherDisplay:10.37 W/m2
03:00 18.4 °F 14.4 °F 30.05 in Calm     84% 0.00 in WeatherDisplay:10.37 W/m2
03:05 18.4 °F 14.4 °F 30.05 in Calm     84% 0.00 in WeatherDisplay:10.37 W/m2
03:10 18.2 °F 14.2 °F 30.05 in Calm     84% 0.00 in WeatherDisplay:10.37 W/m2
03:15 18.1 °F 14.1 °F 30.05 in Calm     84% 0.00 in WeatherDisplay:10.37 W/m2
03:20 18.3 °F 14.3 °F 30.05 in Calm     84% 0.00 in WeatherDisplay:10.37 W/m2
03:25 18.3 °F 14.3 °F 30.05 in Calm     84% 0.00 in WeatherDisplay:10.37 W/m2
03:30 18.2 °F 14.2 °F 30.05 in Calm     84% 0.00 in WeatherDisplay:10.37 W/m2
03:35 18.2 °F 14.4 °F 30.05 in Calm     85% 0.00 in WeatherDisplay:10.37 W/m2
03:40 18.2 °F 14.4 °F 30.05 in Calm     85% 0.00 in WeatherDisplay:10.37 W/m2
03:45 18.2 °F 14.4 °F 30.04 in Calm     85% 0.00 in WeatherDisplay:10.37 W/m2
03:50 18.1 °F 14.4 °F 30.04 in Calm     85% 0.00 in WeatherDisplay:10.37 W/m2
03:55 18.0 °F 14.6 °F 30.04 in Calm     86% 0.00 in WeatherDisplay:10.37 W/m2
04:00 18.0 °F 14.5 °F 30.04 in Calm   3.0 mph 86% 0.00 in WeatherDisplay:10.37 W/m2
04:05 18.0 °F 14.5 °F 30.04 in Calm   2.0 mph 86% 0.00 in WeatherDisplay:10.37 W/m2
04:10 18.0 °F 14.5 °F 30.04 in Calm   2.0 mph 86% 0.00 in WeatherDisplay:10.37 W/m2
04:15 18.0 °F 15.1 °F 30.04 in East 1.0 mph 3.0 mph 88% 0.00 in WeatherDisplay:10.37 W/m2
04:20 18.3 °F 15.1 °F 30.04 in Calm     87% 0.00 in WeatherDisplay:10.37 W/m2
04:25 18.4 °F 15.2 °F 30.04 in Calm     87% 0.00 in WeatherDisplay:10.37 W/m2
04:30 18.5 °F 15.1 °F 30.04 in Calm   2.0 mph 86% 0.00 in WeatherDisplay:10.37 W/m2
04:35 18.8 °F 15.3 °F 30.04 in Calm     86% 0.00 in WeatherDisplay:10.37 W/m2
04:40 18.9 °F 15.4 °F 30.04 in Calm     86% 0.00 in WeatherDisplay:10.37 W/m2
04:45 19.6 °F 14.1 °F 30.04 in ENE 3.0 mph 7.0 mph 79% 0.00 in WeatherDisplay:10.37 W/m2
04:50 20.3 °F 14.5 °F 30.04 in NE 1.0 mph 5.0 mph 78% 0.00 in WeatherDisplay:10.37 W/m2
04:55 20.5 °F 15.6 °F 30.04 in Calm   1.0 mph 81% 0.00 in WeatherDisplay:10.37 W/m2
05:00 20.4 °F 15.2 °F 30.04 in Calm     80% 0.00 in WeatherDisplay:10.37 W/m2
05:05 20.6 °F 14.6 °F 30.04 in ENE 2.0 mph 5.0 mph 77% 0.00 in WeatherDisplay:10.37 W/m2
05:10 20.9 °F 14.9 °F 30.04 in NNE 1.0 mph 3.0 mph 77% 0.00 in WeatherDisplay:10.37 W/m2
05:15 21.2 °F 15.1 °F 30.05 in Calm   4.0 mph 77% 0.00 in WeatherDisplay:10.37 W/m2
05:20 21.2 °F 15.4 °F 30.05 in Calm   5.0 mph 78% 0.00 in WeatherDisplay:10.37 W/m2
05:25 21.3 °F 14.3 °F 30.05 in Calm   3.0 mph 74% 0.00 in WeatherDisplay:10.37 W/m2
05:30 21.4 °F 14.7 °F 30.05 in SE 2.0 mph 4.0 mph 75% 0.00 in WeatherDisplay:10.37 W/m2
05:35 21.5 °F 15.4 °F 30.05 in SSE 1.0 mph 2.0 mph 77% 0.00 in WeatherDisplay:10.37 W/m2
05:40 21.3 °F 15.5 °F 30.05 in SSW 1.0 mph 3.0 mph 78% 0.00 in WeatherDisplay:10.37 W/m2
05:45 21.2 °F 15.4 °F 30.05 in Calm   2.0 mph 78% 0.00 in WeatherDisplay:10.37 W/m2
05:50 21.0 °F 15.5 °F 30.06 in Calm     79% 0.00 in WeatherDisplay:10.37 W/m2
05:55 20.7 °F 14.7 °F 30.06 in Calm     77% 0.00 in WeatherDisplay:10.37 W/m2
06:00 20.8 °F 15.0 °F 30.06 in SSW 1.0 mph 3.0 mph 78% 0.00 in WeatherDisplay:10.37 W/m2
06:05 21.0 °F 15.2 °F 30.06 in Calm   8.0 mph 78% 0.00 in WeatherDisplay:10.37 W/m2
06:10 21.1 °F 14.7 °F 30.06 in Calm   4.0 mph 76% 0.00 in WeatherDisplay:10.37 W/m2
06:15 21.2 °F 14.5 °F 30.06 in NE 1.0 mph 12.0 mph 75% 0.00 in WeatherDisplay:10.37 W/m2
06:20 21.4 °F 15.0 °F 30.06 in ENE 2.0 mph 5.0 mph 76% 0.00 in WeatherDisplay:10.37 W/m2
06:25 21.6 °F 15.2 °F 30.06 in Calm   3.0 mph 76% 0.00 in WeatherDisplay:10.37 W/m2
06:30 21.5 °F 15.7 °F 30.06 in East 1.0 mph 5.0 mph 78% 0.00 in WeatherDisplay:10.37 W/m2
06:35 21.4 °F 15.6 °F 30.07 in Calm   4.0 mph 78% 0.00 in WeatherDisplay:10.37 W/m2
06:40 21.2 °F 15.7 °F 30.07 in Calm   5.0 mph 79% 0.00 in WeatherDisplay:10.37 W/m2
06:45 21.4 °F 15.9 °F 30.07 in NE 1.0 mph 3.0 mph 79% 0.00 in WeatherDisplay:10.37 W/m2
06:50 21.5 °F 16.0 °F 30.07 in Calm   3.0 mph 79% 0.00 in WeatherDisplay:10.37 W/m2
06:55 21.5 °F 16.0 °F 30.07 in Calm   4.0 mph 79% 0.00 in WeatherDisplay:10.37 W/m2
07:00 21.4 °F 16.1 °F 30.07 in ESE 2.0 mph 4.0 mph 80% 0.00 in WeatherDisplay:10.37 W/m2
07:05 21.2 °F 16.0 °F 30.08 in SSE 1.0 mph 2.0 mph 80% 0.00 in WeatherDisplay:10.37 W/m2
07:10 20.9 °F 16.3 °F 30.08 in Calm   2.0 mph 82% 0.00 in WeatherDisplay:10.37 W/m2
07:15 20.6 °F 16.0 °F 30.08 in SSE 1.0 mph 2.0 mph 82% 0.00 in WeatherDisplay:10.37 W/m2
07:20 20.5 °F 16.2 °F 30.08 in SSE 1.0 mph 3.0 mph 83% 0.00 in WeatherDisplay:10.37 W/m2
07:25 20.4 °F 16.1 °F 30.08 in Calm   3.0 mph 83% 0.00 in WeatherDisplay:10.37 W/m2
07:30 20.3 °F 16.0 °F 30.08 in Calm     83% 0.00 in WeatherDisplay:10.37 W/m2
07:35 20.3 °F 16.2 °F 30.08 in Calm     84% 0.00 in WeatherDisplay:10.37 W/m2
07:40 20.4 °F 16.4 °F 30.08 in Calm   2.0 mph 84% 0.00 in WeatherDisplay:10.37 W/m2
07:45 20.9 °F 16.8 °F 30.08 in Calm   3.0 mph 84% 0.00 in WeatherDisplay:10.37 W/m2
07:50 20.9 °F 16.8 °F 30.08 in Calm     84% 0.00 in WeatherDisplay:10.37 W/m2
07:55 21.0 °F 16.9 °F 30.08 in Calm     84% 0.00 in WeatherDisplay:10.37 W/m2
08:00 21.1 °F 17.3 °F 30.09 in Calm   4.0 mph 85% 0.00 in WeatherDisplay:10.37 W/m2
08:05 21.8 °F 17.7 °F 30.09 in Calm   3.0 mph 84% 0.00 in WeatherDisplay:10.37 W/m2
08:10 22.1 °F 18.0 °F 30.09 in ESE 1.0 mph 3.0 mph 84% 0.00 in WeatherDisplay:10.37 W/m2
08:15 22.4 °F 18.3 °F 30.09 in ENE 2.0 mph 7.0 mph 84% 0.00 in WeatherDisplay:10.37 W/m2
08:20 22.9 °F 18.8 °F 30.09 in NNE 2.0 mph 5.0 mph 84% 0.00 in WeatherDisplay:10.37 W/m2
08:25 23.3 °F 18.9 °F 30.10 in Calm   6.0 mph 83% 0.00 in WeatherDisplay:10.37 W/m2
08:30 23.6 °F 18.9 °F 30.10 in ENE 3.0 mph 7.0 mph 82% 0.00 in WeatherDisplay:10.37 W/m2
08:35 24.2 °F 19.5 °F 30.10 in ENE 2.0 mph 6.0 mph 82% 0.00 in WeatherDisplay:10.37 W/m2
08:40 24.5 °F 19.8 °F 30.10 in East 1.0 mph 6.0 mph 82% 0.00 in WeatherDisplay:10.37 W/m2
08:45 24.4 °F 19.4 °F 30.10 in East 5.0 mph 12.0 mph 81% 0.00 in WeatherDisplay:10.37 W/m2
08:50 24.7 °F 19.4 °F 30.10 in East 5.0 mph 7.0 mph 80% 0.00 in WeatherDisplay:10.37 W/m2
08:55 25.3 °F 20.0 °F 30.11 in ESE 3.0 mph 6.0 mph 80% 0.00 in WeatherDisplay:10.37 W/m2
09:00 25.4 °F 19.8 °F 30.11 in East 3.0 mph 13.0 mph 79% 0.00 in WeatherDisplay:10.37 W/m2
09:05 25.9 °F 20.3 °F 30.11 in Calm   12.0 mph 79% 0.00 in WeatherDisplay:10.37 W/m2
09:10 26.1 °F 20.5 °F 30.11 in NE 1.0 mph 5.0 mph 79% 0.00 in WeatherDisplay:10.37 W/m2
09:15 26.3 °F 20.4 °F 30.11 in ENE 2.0 mph 9.0 mph 78% 0.00 in WeatherDisplay:10.37 W/m2
09:20 26.5 °F 20.6 °F 30.11 in East 3.0 mph 8.0 mph 78% 0.00 in WeatherDisplay:10.37 W/m2
09:25 26.8 °F 20.6 °F 30.12 in ESE 1.0 mph 6.0 mph 77% 0.00 in WeatherDisplay:10.37 W/m2
09:30 27.0 °F 20.7 °F 30.12 in ENE 3.0 mph 9.0 mph 77% 0.00 in WeatherDisplay:10.37 W/m2
09:35 27.2 °F 20.9 °F 30.12 in ENE 1.0 mph 9.0 mph 77% 0.00 in WeatherDisplay:10.37 W/m2
09:40 27.4 °F 21.1 °F 30.13 in Calm   2.0 mph 77% 0.00 in WeatherDisplay:10.37 W/m2
09:45 27.7 °F 21.4 °F 30.13 in East 2.0 mph 5.0 mph 77% 0.00 in WeatherDisplay:10.37 W/m2
09:50 28.0 °F 21.7 °F 30.13 in NE 2.0 mph 6.0 mph 77% 0.00 in WeatherDisplay:10.37 W/m2
09:55 28.2 °F 21.6 °F 30.13 in NNE 3.0 mph 7.0 mph 76% 0.00 in WeatherDisplay:10.37 W/m2
10:00 28.4 °F 21.8 °F 30.13 in NE 1.0 mph 6.0 mph 76% 0.00 in WeatherDisplay:10.37 W/m2
10:05 28.3 °F 21.4 °F 30.13 in NE 5.0 mph 8.0 mph 75% 0.00 in WeatherDisplay:10.37 W/m2
10:10 28.2 °F 21.3 °F 30.13 in ENE 6.0 mph 10.0 mph 75% 0.00 in WeatherDisplay:10.37 W/m2
10:15 28.7 °F 22.1 °F 30.13 in NE 3.0 mph 9.0 mph 76% 0.00 in WeatherDisplay:10.37 W/m2
10:20 28.7 °F 22.1 °F 30.13 in ENE 3.0 mph 12.0 mph 76% 0.00 in WeatherDisplay:10.37 W/m2
10:25 28.9 °F 22.3 °F 30.14 in East 3.0 mph 10.0 mph 76% 0.00 in WeatherDisplay:10.37 W/m2
10:30 29.5 °F 22.6 °F 30.14 in ENE 2.0 mph 8.0 mph 75% 0.00 in WeatherDisplay:10.37 W/m2
10:35 29.6 °F 22.3 °F 30.14 in ENE 3.0 mph 8.0 mph 74% 0.00 in WeatherDisplay:10.37 W/m2
10:40 29.4 °F 22.1 °F 30.14 in ENE 3.0 mph 9.0 mph 74% 0.00 in WeatherDisplay:10.37 W/m2
10:45 29.6 °F 22.3 °F 30.14 in East 5.0 mph 8.0 mph 74% 0.00 in WeatherDisplay:10.37 W/m2
10:50 30.3 °F 23.0 °F 30.14 in East 2.0 mph 5.0 mph 74% 0.00 in WeatherDisplay:10.37 W/m2
10:55 30.7 °F 23.1 °F 30.14 in ENE 1.0 mph 5.0 mph 73% 0.00 in WeatherDisplay:10.37 W/m2
11:00 30.5 °F 22.6 °F 30.13 in ENE 2.0 mph 5.0 mph 72% 0.00 in WeatherDisplay:10.37 W/m2
11:05 30.8 °F 22.8 °F 30.13 in East 3.0 mph 5.0 mph 72% 0.00 in WeatherDisplay:10.37 W/m2
11:10 30.5 °F 22.8 °F 30.13 in ENE 3.0 mph 6.0 mph 73% 0.00 in WeatherDisplay:10.37 W/m2
11:15 30.5 °F 22.9 °F 30.13 in ENE 2.0 mph 4.0 mph 73% 0.00 in WeatherDisplay:10.37 W/m2
11:20 30.6 °F 23.0 °F 30.13 in Calm   5.0 mph 73% 0.00 in WeatherDisplay:10.37 W/m2
11:25 30.6 °F 23.0 °F 30.12 in East 2.0 mph 6.0 mph 73% 0.00 in WeatherDisplay:10.37 W/m2
11:30 30.8 °F 23.2 °F 30.12 in East 2.0 mph 5.0 mph 73% 0.00 in WeatherDisplay:10.37 W/m2
11:35 31.2 °F 23.2 °F 30.11 in ENE 2.0 mph 5.0 mph 72% 0.00 in WeatherDisplay:10.37 W/m2
11:40 31.2 °F 23.2 °F 30.11 in ENE 1.0 mph 5.0 mph 72% 0.00 in WeatherDisplay:10.37 W/m2
11:45 31.0 °F 23.0 °F 30.11 in East 2.0 mph 7.0 mph 72% 0.00 in WeatherDisplay:10.37 W/m2
11:50 31.2 °F 23.2 °F 30.11 in ENE 1.0 mph 5.0 mph 72% 0.00 in WeatherDisplay:10.37 W/m2
11:55 31.3 °F 23.3 °F 30.11 in NNE 2.0 mph 4.0 mph 72% 0.00 in WeatherDisplay:10.37 W/m2
12:00 31.5 °F 23.5 °F 30.10 in NNE 1.0 mph 3.0 mph 72% 0.00 in WeatherDisplay:10.37 W/m2
12:05 31.8 °F 23.8 °F 30.10 in Calm   5.0 mph 72% 0.00 in WeatherDisplay:10.37 W/m2
12:10 31.8 °F 23.5 °F 30.10 in Calm   5.0 mph 71% 0.00 in WeatherDisplay:10.37 W/m2
12:15 31.6 °F 23.3 °F 30.09 in ENE 3.0 mph 7.0 mph 71% 0.00 in WeatherDisplay:10.37 W/m2
12:20 31.9 °F 23.6 °F 30.09 in East 2.0 mph 7.0 mph 71% 0.00 in WeatherDisplay:10.37 W/m2
12:25 32.3 °F 23.9 °F 30.09 in Calm   6.0 mph 71% 0.00 in WeatherDisplay:10.37 W/m2
12:30 32.2 °F 23.8 °F 30.08 in NE 1.0 mph 5.0 mph 71% 0.00 in WeatherDisplay:10.37 W/m2
12:35 32.1 °F 23.4 °F 30.08 in ESE 3.0 mph 9.0 mph 70% 0.00 in WeatherDisplay:10.37 W/m2
12:40 32.5 °F 23.8 °F 30.07 in SE 3.0 mph 7.0 mph 70% 0.00 in WeatherDisplay:10.37 W/m2
12:45 32.6 °F 23.9 °F 30.07 in SE 2.0 mph 4.0 mph 70% 0.00 in WeatherDisplay:10.37 W/m2
12:50 33.0 °F 24.3 °F 30.08 in ESE 1.0 mph 6.0 mph 70% 0.00 in WeatherDisplay:10.37 W/m2
12:55 32.9 °F 23.5 °F 30.07 in East 2.0 mph 8.0 mph 68% 0.00 in WeatherDisplay:10.37 W/m2
13:00 33.3 °F 23.9 °F 30.07 in East 5.0 mph 7.0 mph 68% 0.00 in WeatherDisplay:10.37 W/m2
13:05 32.9 °F 23.5 °F 30.07 in ENE 5.0 mph 8.0 mph 68% 0.00 in WeatherDisplay:10.37 W/m2
13:10 33.1 °F 23.7 °F 30.07 in East 3.0 mph 7.0 mph 68% 0.00 in WeatherDisplay:10.37 W/m2
13:15 32.8 °F 23.4 °F 30.07 in East 5.0 mph 8.0 mph 68% 0.00 in WeatherDisplay:10.37 W/m2
13:20 33.1 °F 23.7 °F 30.07 in East 3.0 mph 6.0 mph 68% 0.00 in WeatherDisplay:10.37 W/m2
13:25 33.5 °F 24.1 °F 30.07 in Calm   5.0 mph 68% 0.00 in WeatherDisplay:10.37 W/m2
13:30 33.9 °F 24.1 °F 30.07 in ENE 3.0 mph 7.0 mph 67% 0.00 in WeatherDisplay:10.37 W/m2
13:35 34.4 °F 24.6 °F 30.07 in NE 1.0 mph 6.0 mph 67% 0.00 in WeatherDisplay:10.37 W/m2
13:40 34.3 °F 24.1 °F 30.07 in NE 3.0 mph 6.0 mph 66% 0.00 in WeatherDisplay:10.37 W/m2
13:45 34.4 °F 24.2 °F 30.07 in ENE 2.0 mph 8.0 mph 66% 0.00 in WeatherDisplay:10.37 W/m2
13:50 34.2 °F 24.0 °F 30.07 in ENE 3.0 mph 7.0 mph 66% 0.00 in WeatherDisplay:10.37 W/m2
13:55 34.2 °F 24.0 °F 30.07 in ENE 1.0 mph 6.0 mph 66% 0.00 in WeatherDisplay:10.37 W/m2
14:00 34.8 °F 24.6 °F 30.07 in ENE 3.0 mph 6.0 mph 66% 0.00 in WeatherDisplay:10.37 W/m2
14:05 35.0 °F 24.8 °F 30.06 in ENE 2.0 mph 5.0 mph 66% 0.00 in WeatherDisplay:10.37 W/m2
14:10 34.9 °F 24.3 °F 30.06 in ENE 3.0 mph 7.0 mph 65% 0.00 in WeatherDisplay:10.37 W/m2
14:15 35.0 °F 24.4 °F 30.07 in ENE 3.0 mph 6.0 mph 65% 0.00 in WeatherDisplay:10.37 W/m2
14:20 34.3 °F 23.8 °F 30.07 in NE 5.0 mph 7.0 mph 65% 0.00 in WeatherDisplay:10.37 W/m2
14:25 34.3 °F 24.1 °F 30.07 in NE 2.0 mph 8.0 mph 66% 0.00 in WeatherDisplay:10.37 W/m2
14:30 34.1 °F 24.0 °F 30.07 in NE 1.0 mph 8.0 mph 66% 0.00 in WeatherDisplay:10.37 W/m2
14:35 34.0 °F 23.8 °F 30.07 in NE 3.0 mph 6.0 mph 66% 0.00 in WeatherDisplay:10.37 W/m2
14:40 33.8 °F 24.0 °F 30.07 in Calm   3.0 mph 67% 0.00 in WeatherDisplay:10.37 W/m2
14:45 33.5 °F 24.0 °F 30.07 in NE 1.0 mph 5.0 mph 68% 0.00 in WeatherDisplay:10.37 W/m2
14:50 33.1 °F 23.3 °F 30.07 in NE 2.0 mph 8.0 mph 67% 0.00 in WeatherDisplay:10.37 W/m2
14:55 33.1 °F 23.6 °F 30.07 in East 1.0 mph 5.0 mph 68% 0.00 in WeatherDisplay:10.37 W/m2
15:00 33.3 °F 23.9 °F 30.07 in Calm   2.0 mph 68% 0.00 in WeatherDisplay:10.37 W/m2
15:05 33.5 °F 23.8 °F 30.07 in Calm   3.0 mph 67% 0.00 in WeatherDisplay:10.37 W/m2
15:10 33.7 °F 23.9 °F 30.07 in East 2.0 mph 9.0 mph 67% 0.00 in WeatherDisplay:10.37 W/m2
15:15 33.3 °F 23.8 °F 30.07 in East 3.0 mph 9.0 mph 68% 0.00 in WeatherDisplay:10.37 W/m2
15:20 32.9 °F 23.5 °F 30.07 in East 3.0 mph 5.0 mph 68% 0.00 in WeatherDisplay:10.37 W/m2
15:25 33.0 °F 24.0 °F 30.07 in SE 3.0 mph 6.0 mph 69% 0.00 in WeatherDisplay:10.37 W/m2
15:30 33.3 °F 24.2 °F 30.07 in SE 1.0 mph 4.0 mph 69% 0.00 in WeatherDisplay:10.37 W/m2
15:35 33.1 °F 23.7 °F 30.07 in East 3.0 mph 7.0 mph 68% 0.00 in WeatherDisplay:10.37 W/m2
15:40 33.1 °F 23.7 °F 30.07 in East 2.0 mph 6.0 mph 68% 0.00 in WeatherDisplay:10.37 W/m2
15:45 32.8 °F 23.8 °F 30.07 in ENE 5.0 mph 8.0 mph 69% 0.00 in WeatherDisplay:10.37 W/m2
15:50 32.7 °F 24.0 °F 30.07 in NE 3.0 mph 7.0 mph 70% 0.00 in WeatherDisplay:10.37 W/m2
15:55 32.4 °F 23.7 °F 30.07 in ENE 3.0 mph 6.0 mph 70% 0.00 in WeatherDisplay:10.37 W/m2
16:00 32.4 °F 24.0 °F 30.07 in ENE 3.0 mph 6.0 mph 71% 0.00 in WeatherDisplay:10.37 W/m2
16:05 32.3 °F 24.3 °F 30.07 in NE 2.0 mph 6.0 mph 72% 0.00 in WeatherDisplay:10.37 W/m2
16:10 32.2 °F 23.8 °F 30.07 in Calm   6.0 mph 71% 0.00 in WeatherDisplay:10.37 W/m2
16:15 32.0 °F 24.0 °F 30.07 in Calm   2.0 mph 72% 0.00 in WeatherDisplay:10.37 W/m2
16:20 31.8 °F 23.8 °F 30.07 in Calm     72% 0.00 in WeatherDisplay:10.37 W/m2
16:25 31.4 °F 23.4 °F 30.07 in Calm     72% 0.00 in WeatherDisplay:10.37 W/m2
16:30 31.3 °F 23.6 °F 30.07 in Calm     73% 0.00 in WeatherDisplay:10.37 W/m2
16:35 31.2 °F 23.9 °F 30.07 in Calm     74% 0.00 in WeatherDisplay:10.37 W/m2
16:40 30.8 °F 23.9 °F 30.07 in Calm     75% 0.00 in WeatherDisplay:10.37 W/m2
16:45 30.4 °F 23.8 °F 30.07 in Calm     76% 0.00 in WeatherDisplay:10.37 W/m2
16:50 30.1 °F 23.4 °F 30.07 in Calm     76% 0.00 in WeatherDisplay:10.37 W/m2
16:55 29.8 °F 23.5 °F 30.07 in Calm     77% 0.00 in WeatherDisplay:10.37 W/m2
17:00 29.5 °F 23.2 °F 30.08 in Calm     77% 0.00 in WeatherDisplay:10.37 W/m2
17:05 29.2 °F 22.9 °F 30.08 in Calm     77% 0.00 in WeatherDisplay:10.37 W/m2
17:10 28.9 °F 22.6 °F 30.08 in Calm     77% 0.00 in WeatherDisplay:10.37 W/m2
17:15 28.7 °F 22.4 °F 30.08 in Calm     77% 0.00 in WeatherDisplay:10.37 W/m2
17:20 28.4 °F 22.4 °F 30.08 in Calm     78% 0.00 in WeatherDisplay:10.37 W/m2
17:25 28.2 °F 22.2 °F 30.08 in Calm     78% 0.00 in WeatherDisplay:10.37 W/m2
17:30 28.0 °F 22.3 °F 30.08 in Calm     79% 0.00 in WeatherDisplay:10.37 W/m2
17:35 27.8 °F 22.2 °F 30.08 in Calm     79% 0.00 in WeatherDisplay:10.37 W/m2
17:40 27.7 °F 22.3 °F 30.08 in Calm     80% 0.00 in WeatherDisplay:10.37 W/m2
17:45 27.5 °F 22.1 °F 30.08 in Calm     80% 0.00 in WeatherDisplay:10.37 W/m2
17:50 27.3 °F 21.9 °F 30.09 in Calm     80% 0.00 in WeatherDisplay:10.37 W/m2
17:55 27.2 °F 22.1 °F 30.09 in Calm     81% 0.00 in WeatherDisplay:10.37 W/m2
18:00 27.0 °F 22.0 °F 30.09 in Calm     81% 0.00 in WeatherDisplay:10.37 W/m2
18:05 26.9 °F 21.8 °F 30.09 in Calm     81% 0.00 in WeatherDisplay:10.37 W/m2
18:10 26.8 °F 22.0 °F 30.09 in Calm     82% 0.00 in WeatherDisplay:10.37 W/m2
18:15 26.6 °F 21.9 °F 30.09 in Calm     82% 0.00 in WeatherDisplay:10.37 W/m2
18:20 26.5 °F 22.1 °F 30.09 in Calm     83% 0.00 in WeatherDisplay:10.37 W/m2
18:25 26.4 °F 21.9 °F 30.09 in Calm     83% 0.00 in WeatherDisplay:10.37 W/m2
18:30 26.3 °F 21.8 °F 30.09 in Calm     83% 0.00 in WeatherDisplay:10.37 W/m2
18:35 26.2 °F 22.0 °F 30.09 in Calm     84% 0.00 in WeatherDisplay:10.37 W/m2
18:40 26.1 °F 22.0 °F 30.09 in Calm     84% 0.00 in WeatherDisplay:10.37 W/m2
18:45 26.0 °F 21.9 °F 30.09 in Calm     84% 0.00 in WeatherDisplay:10.37 W/m2
18:50 25.9 °F 22.0 °F 30.08 in Calm     85% 0.00 in WeatherDisplay:10.37 W/m2
18:55 25.8 °F 21.9 °F 30.08 in Calm     85% 0.00 in WeatherDisplay:10.37 W/m2
19:00 25.7 °F 21.8 °F 30.08 in Calm     85% 0.00 in WeatherDisplay:10.37 W/m2
19:05 25.6 °F 21.7 °F 30.08 in Calm     85% 0.00 in WeatherDisplay:10.37 W/m2
19:10 25.4 °F 21.8 °F 30.07 in Calm     86% 0.00 in WeatherDisplay:10.37 W/m2
19:15 25.3 °F 21.7 °F 30.07 in Calm     86% 0.00 in WeatherDisplay:10.37 W/m2
19:20 25.2 °F 21.6 °F 30.07 in Calm     86% 0.00 in WeatherDisplay:10.37 W/m2
19:25 25.1 °F 21.5 °F 30.08 in Calm     86% 0.00 in WeatherDisplay:10.37 W/m2
19:30 25.0 °F 21.4 °F 30.08 in Calm     86% 0.00 in WeatherDisplay:10.37 W/m2
19:35 25.0 °F 21.7 °F 30.07 in Calm     87% 0.00 in WeatherDisplay:10.37 W/m2
19:40 24.8 °F 21.5 °F 30.07 in Calm     87% 0.00 in WeatherDisplay:10.37 W/m2
19:45 24.8 °F 21.4 °F 30.07 in Calm     87% 0.00 in WeatherDisplay:10.37 W/m2
19:50 24.7 °F 21.3 °F 30.07 in Calm     87% 0.00 in WeatherDisplay:10.37 W/m2
19:55 24.6 °F 21.3 °F 30.07 in Calm     87% 0.00 in WeatherDisplay:10.37 W/m2
20:00 24.5 °F 21.2 °F 30.06 in Calm     87% 0.00 in WeatherDisplay:10.37 W/m2
20:05 24.3 °F 21.0 °F 30.06 in Calm     87% 0.00 in WeatherDisplay:10.37 W/m2
20:10 24.2 °F 21.1 °F 30.06 in Calm     88% 0.00 in WeatherDisplay:10.37 W/m2
20:15 24.2 °F 21.1 °F 30.06 in Calm     88% 0.00 in WeatherDisplay:10.37 W/m2
20:20 24.0 °F 21.0 °F 30.06 in Calm     88% 0.00 in WeatherDisplay:10.37 W/m2
20:25 24.0 °F 20.9 °F 30.06 in Calm     88% 0.00 in WeatherDisplay:10.37 W/m2
20:30 23.9 °F 20.8 °F 30.06 in Calm     88% 0.00 in WeatherDisplay:10.37 W/m2
20:35 23.8 °F 20.7 °F 30.06 in Calm     88% 0.00 in WeatherDisplay:10.37 W/m2
20:40 23.7 °F 20.7 °F 30.06 in Calm     88% 0.00 in WeatherDisplay:10.37 W/m2
20:45 23.6 °F 20.8 °F 30.06 in Calm     89% 0.00 in WeatherDisplay:10.37 W/m2
20:50 23.5 °F 20.7 °F 30.06 in Calm     89% 0.00 in WeatherDisplay:10.37 W/m2
20:55 23.4 °F 20.6 °F 30.06 in Calm     89% 0.00 in WeatherDisplay:10.37 W/m2
21:00 23.3 °F 20.5 °F 30.06 in Calm     89% 0.00 in WeatherDisplay:10.37 W/m2
21:05 23.2 °F 20.5 °F 30.06 in Calm     89% 0.00 in WeatherDisplay:10.37 W/m2
21:10 23.2 °F 20.4 °F 30.06 in Calm     89% 0.00 in WeatherDisplay:10.37 W/m2
21:15 23.1 °F 20.6 °F 30.06 in Calm     90% 0.00 in WeatherDisplay:10.37 W/m2
21:20 22.9 °F 20.4 °F 30.06 in Calm     90% 0.00 in WeatherDisplay:10.37 W/m2
21:25 22.8 °F 20.3 °F 30.06 in Calm     90% 0.00 in WeatherDisplay:10.37 W/m2
21:30 22.8 °F 20.3 °F 30.06 in Calm     90% 0.00 in WeatherDisplay:10.37 W/m2
Compliments of Weather Underground - 2.25 mb